Location: Newark
(39.5667°N, 8.9833°E)
Time: 22:09:40
(UTC+00:00)

ISS - Visible Passes

Search period start: 15 September 2019 00:00
Search period end: 25 September 2019 00:00
Orbit: 411 x 421 km, 51.6° (Epoch: 15 September)

Date Brightness Start Highest point End Pass type
(mag) Time Alt. Az. Time Alt. Az. Time Alt. Az.
15 Sep -3.9 03:32:38 54° WNW 03:33:17 78° SW 03:36:37 10° SE visible
16 Sep -1.1 02:47:24 16° ESE 02:47:24 16° ESE 02:48:08 10° ESE visible
16 Sep -1.9 04:20:23 13° WSW 04:21:14 14° SW 04:23:06 10° SSW visible
17 Sep -1.3 03:35:24 12° S 03:35:24 12° S 03:35:45 10° S visible
17 Sep -1.8 18:36:05 10° S 18:37:18 15° SSE 18:37:18 15° SSE visible
18 Sep -2.3 19:23:00 10° SW 19:24:55 32° SW 19:24:55 32° SW visible
19 Sep -3.6 18:34:38 10° SW 18:37:51 51° SE 18:39:16 28° ENE visible
19 Sep -0.3 20:12:03 10° W 20:12:13 11° WNW 20:12:13 11° WNW visible
20 Sep -2.2 19:23:05 10° W 19:26:08 33° NNW 19:26:18 32° NNW visible
21 Sep -3.1 18:34:18 10° WSW 18:37:33 53° NW 18:40:10 15° NE visible
21 Sep -0.2 20:13:00 10° NW 20:13:05 10° NW 20:13:05 10° NW visible
22 Sep -3.8 17:45:43 10° SW 17:49:01 87° SE 17:52:21 10° NE visible
22 Sep -1.3 19:23:46 10° WNW 19:26:08 18° NNW 19:26:47 17° N visible
23 Sep -1.6 18:34:38 10° W 18:37:25 24° NNW 18:40:12 10° NNE visible
24 Sep -2.3 17:45:40 10° W 17:48:45 35° NNW 17:51:51 10° NE visible
24 Sep -0.9 19:24:49 10° NW 19:26:15 12° N 19:26:40 12° N visible
